Location: St. Louis
(38.6270°N, 90.1994°W)
Time: 13:29:49
(UTC-06:00)

S-56A Canister/Altair - Pass Details

Date: 03 December 2021
Orbit: 633 x 2499 km, 38.9° (Epoch: 19 January)

Event Time Altitude Azimuth Distance (km) Brightness Sun altitude
Rises 22:54:09 0° 228° (SW) 5,641 - -69.6°
Reaches altitude 10° 22:58:24 10° 224° (SW) 4,385 - -70.1°
Maximum altitude 23:09:00 48° 155° (SSE) 1,839 - -71.3°
Drops below altitude 10° 23:16:07 10° 83° (E) 2,984 - -72.0°
Sets 23:18:29 0° 77° (ENE) 3,739 - -72.2°
